SCP
0 0 0 0 0 0 0 0 0 0 0 0 0 0 0 0 0 0 0 0 0 0
0 0 0 0 0 0 0 0 0 0 0 0 0 0 0 0 0 0 0 0 0 0
0 0 0 0 0 0 0 0 0 0 0 0 0 0 0 0 0 0 0 0 0 0
0 0 0 0 0 0 0 0 0 0 0 0 0 0 0 0 0 0 0 0 0 0
0 0 0 0 0 0 0 0 0 0 0 0 0 0 0 0 0 0 0 0 0 0
0 0 0 0 0 0 0 0 0 0 0 0 0 0 0 0 0 0 0 0 0 0
0 0 0 0 0 0 0 0 0 0 0 0 0 0 0 0 0 0 0 0 0 0
0 0 0 0 0 0 0 0 0 0 0 0 0 0 0 0 0 0 0 0 0 0
0 0 0 0 0 0 0 0 0 0 0 0 0 0 0 0 0 0 0 0 0 0
0 0 0 0 0 0 0 0 0 0 0 0 0 0 0 0 0 0 0 0 0 0
0 0 0 0 0 0 0 0 0 0 0 0 0 0 0 0 0 0 0 0 0 0
0 0 0 0 0 0 0 0 0 0 0 0 0 0 0 0 0 0 0 0 0 0
0 0 0 0 0 0 0 0 0 0 0 0 0 0 0 0 0 0 0 0 0 0
0 0 0 0 0 0 0 0 0 0 0 0 0 0 0 0 0 0 0 0 0 0
Wind_Speed_500mb
35 35 36 36 39 42 43 44 43 41 41 40 39 36 34 33 32 32 32 36 39 38
31 32 34 36 38 41 42 40 38 35 33 33 31 29 27 26 23 25 28 30 33 35
33 35 37 39 40 41 41 38 35 32 29 28 27 27 28 29 28 30 32 36 39 39
37 39 40 40 41 41 41 38 35 32 30 28 27 26 27 27 27 27 28 28 29 28
39 41 41 41 40 39 39 38 36 35 33 31 29 28 27 27 26 25 24 24 24 26
42 42 40 38 36 35 35 35 36 36 35 32 30 28 27 25 25 24 22 23 22 23
41 37 32 28 25 26 29 32 30 31 31 29 28 25 22 20 21 21 20 20 18 18
34 27 23 19 20 24 24 22 20 20 22 21 21 20 18 17 16 16 15 13 12 14
28 23 21 21 20 19 19 18 19 19 20 19 17 17 16 13 11 12 11 8 9 11
24 22 22 20 20 19 17 18 17 19 19 16 14 11 11 13 10 7 7 7 10 13
27 28 25 24 23 20 20 20 20 20 17 15 14 11 8 7 7 8 9 9 12 12
30 32 29 28 25 22 23 21 20 20 20 18 13 10 9 10 9 7 7 9 10 12
30 33 31 29 25 25 24 23 25 25 21 17 13 10 10 8 4 5 6 8 12 13
32 32 31 28 28 27 27 28 29 25 20 16 14 13 10 5 4 5 7 9 13 15
Wind_Direction_500mb
259 263 265 267 270 271 271 272 272 270 269 268 267 267 268 268 268 264 256 252 254 252
261 265 269 270 271 271 272 272 272 270 268 266 262 260 258 261 260 249 252 247 245 251
263 269 273 274 272 271 270 269 269 269 266 263 258 255 254 257 260 259 255 255 258 262
274 277 276 273 270 267 265 264 263 262 261 259 256 255 257 259 259 257 258 260 262 262
279 280 277 272 268 265 263 261 260 258 257 256 257 256 256 259 260 256 253 253 256 261
283 281 275 269 264 260 259 261 261 259 255 253 251 250 250 250 251 251 250 252 251 255
282 276 268 260 256 257 262 270 272 259 244 238 238 237 236 239 245 247 246 246 248 253
276 262 249 246 255 262 263 262 252 234 227 219 222 223 226 224 231 236 234 233 238 251
262 243 241 244 242 247 254 242 223 219 209 206 208 207 213 216 214 219 221 226 250 268
242 229 234 230 230 236 236 224 218 204 189 192 195 188 190 190 174 182 220 241 258 265
227 220 223 225 226 232 217 212 201 198 184 180 172 164 179 195 201 222 237 245 249 259
227 218 214 217 221 218 212 210 203 192 179 172 178 172 192 212 213 219 237 256 269 267
222 218 214 217 219 217 211 204 195 187 183 184 184 191 212 212 216 235 263 275 273 281
218 217 215 217 218 215 208 194 191 191 192 192 200 211 223 233 248 279 281 282 290 293
Wind_Speed_850mb
35 35 36 36 39 42 43 44 43 41 41 40 39 36 34 33 32 32 32 36 39 38
31 32 34 36 38 41 42 40 38 35 33 33 31 29 27 26 23 25 28 30 33 35
33 35 37 39 40 41 41 38 35 32 29 28 27 27 28 29 28 30 32 36 39 39
37 39 40 40 41 41 41 38 35 32 30 28 27 26 27 27 27 27 28 28 29 28
39 41 41 41 40 39 39 38 36 35 33 31 29 28 27 27 26 25 24 24 24 26
42 42 40 38 36 35 35 35 36 36 35 32 30 28 27 25 25 24 22 23 22 23
41 37 32 28 25 26 29 32 30 31 31 29 28 25 22 20 21 21 20 20 18 18
34 27 23 19 20 24 24 22 20 20 22 21 21 20 18 17 16 16 15 13 12 14
28 23 21 21 20 19 19 18 19 19 20 19 17 17 16 13 11 12 11 8 9 11
24 22 22 20 20 19 17 18 17 19 19 16 14 11 11 13 10 7 7 7 10 13
27 28 25 24 23 20 20 20 20 20 17 15 14 11 8 7 7 8 9 9 12 12
30 32 29 28 25 22 23 21 20 20 20 18 13 10 9 10 9 7 7 9 10 12
30 33 31 29 25 25 24 23 25 25 21 17 13 10 10 8 4 5 6 8 12 13
32 32 31 28 28 27 27 28 29 25 20 16 14 13 10 5 4 5 7 9 13 15
Wind_Direction_850mb
259 263 265 267 270 271 271 272 272 270 269 268 267 267 268 268 268 264 256 252 254 252
261 265 269 270 271 271 272 272 272 270 268 266 262 260 258 261 260 249 252 247 245 251
263 269 273 274 272 271 270 269 269 269 266 263 258 255 254 257 260 259 255 255 258 262
274 277 276 273 270 267 265 264 263 262 261 259 256 255 257 259 259 257 258 260 262 262
279 280 277 272 268 265 263 261 260 258 257 256 257 256 256 259 260 256 253 253 256 261
283 281 275 269 264 260 259 261 261 259 255 253 251 250 250 250 251 251 250 252 251 255
282 276 268 260 256 257 262 270 272 259 244 238 238 237 236 239 245 247 246 246 248 253
276 262 249 246 255 262 263 262 252 234 227 219 222 223 226 224 231 236 234 233 238 251
262 243 241 244 242 247 254 242 223 219 209 206 208 207 213 216 214 219 221 226 250 268
242 229 234 230 230 236 236 224 218 204 189 192 195 188 190 190 174 182 220 241 258 265
227 220 223 225 226 232 217 212 201 198 184 180 172 164 179 195 201 222 237 245 249 259
227 218 214 217 221 218 212 210 203 192 179 172 178 172 192 212 213 219 237 256 269 267
222 218 214 217 219 217 211 204 195 187 183 184 184 191 212 212 216 235 263 275 273 281
218 217 215 217 218 215 208 194 191 191 192 192 200 211 223 233 248 279 281 282 290 293